Provincetown, MA

4:47 PM EST on November 17, 2017 (GMT -0500)
Provincetown Municipal

Weather History for KPVC - May, 2013

Change the Weather History Date:

Sunday, May 26, 2013

  Actual Average Record
Temperature  
Mean Temperature 50 °F -  
Max Temperature 57 °F 62 °F 82 °F (2007)
Min Temperature 42 °F 48 °F 42 °F (1952)
Degree Days  
Heating Degree Days 16    
Moisture  
Dew Point 41 °F    
Average Humidity 74    
Maximum Humidity 100    
Minimum Humidity 58    
Precipitation  
Precipitation 0.02 in - - ()
Sea Level Pressure  
Sea Level Pressure 29.85 in    
Wind  
Wind Speed 18 mph (WNW)    
Max Wind Speed 23 mph    
Max Gust Speed 31 mph    
Visibility 10 miles    
Events      
Averages and records for this station are not official NWS values.
T = Trace of Precipitation, MM = Missing Value Source: NWS Daily Summary

Daily Weather History Graph

Daily Weather History Graph

Search for Another Location

Airport or City:

Trip Planner

Search our weather history database for the weather conditions in past years. The results will help you decide how hot, cold, wet, or windy it might be!

Date:

Astronomy

May. 26, 2013 Rise Set
Actual Time 5:10 AM EDT 8:05 PM EDT
Civil Twilight 4:37 AM EDT 8:38 PM EDT
Nautical Twilight 3:55 AM EDT 9:20 PM EDT
Astronomical Twilight 3:06 AM EDT 10:10 PM EDT
Moon 9:49 PM EDT (5/26) 6:36 AM EDT (5/26)
Length of Visible Light 16h 01m
Length of Day
14h 54m
Waning Gibbous, 97% of the Moon is Illuminated
May 26
Waning Gibbous
May 31
Last Quarter
Jun 8
New
Jun 16
First Quarter
Jun 23
Full

Hourly Weather History & Observations

Time (EDT) Temp. Windchill Dew Point Humidity Pressure Visibility Wind Dir Wind Speed Gust Speed Precip Events Conditions
12:15 AM 46.4 °F 38.7 °F 39.2 °F 76% 29.72 in 10.0 mi WNW 20.7 mph 26.5 mph N/A   Overcast
12:35 AM 44.6 °F 36.1 °F 39.2 °F 81% 29.72 in 10.0 mi WNW 21.9 mph 28.8 mph N/A   Overcast
12:55 AM 44.6 °F 36.9 °F 39.2 °F 81% 29.72 in 10.0 mi WNW 18.4 mph 28.8 mph N/A   Overcast
1:15 AM 44.6 °F 36.4 °F 39.2 °F 81% 29.72 in 10.0 mi WNW 20.7 mph 27.6 mph N/A   Overcast
1:35 AM 44.6 °F 36.4 °F 39.2 °F 81% 29.72 in 10.0 mi WNW 20.7 mph 27.6 mph N/A   Overcast
1:55 AM 44.6 °F 37.2 °F 39.2 °F 81% 29.72 in 10.0 mi West 17.3 mph 26.5 mph N/A   Overcast
2:15 AM 44.6 °F 37.8 °F 39.2 °F 81% 29.72 in 10.0 mi West 15.0 mph 23.0 mph N/A   Overcast
2:35 AM 44.6 °F 37.4 °F 39.2 °F 81% 29.72 in 10.0 mi West 16.1 mph 24.2 mph N/A   Overcast
2:55 AM 42.8 °F 34.8 °F 39.2 °F 87% 29.71 in 10.0 mi West 17.3 mph 23.0 mph N/A   Overcast
3:15 AM 42.8 °F 34.8 °F 37.4 °F 81% 29.71 in 10.0 mi West 17.3 mph 23.0 mph N/A   Overcast
3:35 AM 42.8 °F 35.4 °F 37.4 °F 81% 29.71 in 10.0 mi West 15.0 mph 23.0 mph N/A   Overcast
3:55 AM 42.8 °F 34.5 °F 37.4 °F 81% 29.72 in 10.0 mi West 18.4 mph 24.2 mph N/A   Overcast
4:15 AM 42.8 °F 35.4 °F 37.4 °F 81% 29.72 in 10.0 mi West 15.0 mph 23.0 mph N/A   Overcast
4:35 AM 42.8 °F 35.1 °F 37.4 °F 81% 29.73 in 10.0 mi West 16.1 mph 24.2 mph N/A   Overcast
4:55 AM 42.8 °F 35.1 °F 37.4 °F 81% 29.73 in 10.0 mi West 16.1 mph 24.2 mph N/A   Overcast
5:15 AM 42.8 °F 35.1 °F 37.4 °F 81% 29.73 in 10.0 mi West 16.1 mph 23.0 mph N/A   Overcast
5:35 AM 42.8 °F 34.5 °F 37.4 °F 81% 29.73 in 10.0 mi West 18.4 mph 23.0 mph N/A   Overcast
5:55 AM 42.8 °F 35.4 °F 37.4 °F 81% 29.74 in 10.0 mi West 15.0 mph 24.2 mph N/A   Overcast
6:15 AM 42.8 °F 34.8 °F 37.4 °F 81% 29.74 in 10.0 mi West 17.3 mph 23.0 mph N/A   Overcast
6:35 AM 42.8 °F 34.8 °F 37.4 °F 81% 29.74 in 10.0 mi West 17.3 mph 24.2 mph N/A   Overcast
6:55 AM 42.8 °F 34.0 °F 39.2 °F 87% 29.75 in 10.0 mi WNW 20.7 mph 24.2 mph N/A   Overcast
7:15 AM 42.8 °F 35.1 °F 39.2 °F 87% 29.76 in 10.0 mi WNW 16.1 mph 25.3 mph N/A   Overcast
7:35 AM 42.8 °F 34.0 °F 39.2 °F 87% 29.76 in 10.0 mi West 20.7 mph 28.8 mph 0.01 in   Overcast
7:55 AM 42.8 °F 34.8 °F 41.0 °F 93% 29.77 in 3.0 mi West 17.3 mph 26.5 mph 0.02 in   Overcast
8:15 AM 42.8 °F 34.8 °F 41.0 °F 93% 29.77 in 4.0 mi West 17.3 mph 27.6 mph N/A   Overcast
8:35 AM 42.8 °F 33.8 °F 42.8 °F 100% 29.78 in 3.0 mi WNW 21.9 mph - N/A   Overcast
8:55 AM 44.6 °F 35.9 °F 42.8 °F 93% 29.78 in 5.0 mi WNW 23.0 mph 27.6 mph N/A   Overcast
9:15 AM 44.6 °F 35.9 °F 41.0 °F 87% 29.79 in 9.0 mi WNW 23.0 mph 27.6 mph N/A   Overcast
9:35 AM 44.6 °F 37.2 °F 41.0 °F 87% 29.80 in 10.0 mi WNW 17.3 mph 27.6 mph N/A   Overcast
9:55 AM 44.6 °F 36.1 °F 41.0 °F 87% 29.80 in 10.0 mi WNW 21.9 mph 31.1 mph N/A   Overcast
10:15 AM 46.4 °F 38.7 °F 42.8 °F 87% 29.81 in 10.0 mi WNW 20.7 mph 28.8 mph N/A   Overcast
10:35 AM 46.4 °F 38.7 °F 41.0 °F 81% 29.82 in 10.0 mi WNW 20.7 mph 26.5 mph N/A   Overcast
10:55 AM 48.2 °F - 42.8 °F 82% 29.82 in 10.0 mi WNW 20.7 mph 26.5 mph N/A   Overcast
11:15 AM 48.2 °F - 42.8 °F 82% 29.83 in 10.0 mi WNW 20.7 mph 26.5 mph N/A   Overcast
11:35 AM 48.2 °F - 42.8 °F 82% 29.84 in 10.0 mi WNW 15.0 mph 23.0 mph N/A   Overcast
11:55 AM 50.0 °F - 42.8 °F 76% 29.84 in 10.0 mi WNW 13.8 mph 19.6 mph N/A   Overcast
12:15 PM 51.8 °F - 42.8 °F 71% 29.86 in 10.0 mi West 13.8 mph 21.9 mph N/A   Overcast
12:35 PM 53.6 °F - 42.8 °F 67% 29.85 in 10.0 mi West 15.0 mph - N/A   Overcast
12:55 PM 53.6 °F - 41.0 °F 62% 29.86 in 10.0 mi WNW 16.1 mph - N/A   Overcast
1:15 PM 53.6 °F - 42.8 °F 67% 29.86 in 10.0 mi WNW 12.7 mph - N/A   Overcast
1:35 PM 55.4 °F - 44.6 °F 67% 29.86 in 10.0 mi West 12.7 mph - N/A   Overcast
1:55 PM 55.4 °F - 44.6 °F 67% 29.86 in 10.0 mi West 11.5 mph - N/A   Overcast
2:15 PM 55.4 °F - 44.6 °F 67% 29.87 in 10.0 mi West 13.8 mph - N/A   Overcast
2:35 PM 57.2 °F - 42.8 °F 59% 29.87 in 10.0 mi WNW 15.0 mph 19.6 mph N/A   Overcast
2:55 PM 55.4 °F - 42.8 °F 63% 29.88 in 10.0 mi WNW 15.0 mph 23.0 mph N/A   Overcast
3:15 PM 55.4 °F - 42.8 °F 63% 29.88 in 10.0 mi WNW 19.6 mph - N/A   Overcast
3:35 PM 55.4 °F - 42.8 °F 63% 29.89 in 10.0 mi WNW 16.1 mph 23.0 mph N/A   Overcast
3:55 PM 57.2 °F - 42.8 °F 59% 29.90 in 10.0 mi WNW 15.0 mph 20.7 mph N/A   Scattered Clouds
4:15 PM 55.4 °F - 42.8 °F 63% 29.91 in 10.0 mi NW 15.0 mph - N/A   Scattered Clouds
4:35 PM 55.4 °F - 42.8 °F 63% 29.91 in 10.0 mi WNW 12.7 mph - N/A   Overcast
4:55 PM 53.6 °F - 41.0 °F 62% 29.93 in 10.0 mi NW 17.3 mph 24.2 mph N/A   Overcast
5:15 PM 55.4 °F - 42.8 °F 63% 29.93 in 10.0 mi NW 13.8 mph 21.9 mph N/A   Overcast
5:35 PM 55.4 °F - 42.8 °F 63% 29.94 in 10.0 mi NW 13.8 mph 19.6 mph N/A   Mostly Cloudy
5:55 PM 53.6 °F - 42.8 °F 67% 29.95 in 10.0 mi NW 12.7 mph 19.6 mph N/A   Scattered Clouds
6:15 PM 53.6 °F - 42.8 °F 67% 29.96 in 10.0 mi NW 11.5 mph - N/A   Mostly Cloudy
6:35 PM 53.6 °F - 42.8 °F 67% 29.97 in 10.0 mi NW 13.8 mph 17.3 mph N/A   Overcast
6:55 PM 53.6 °F - 42.8 °F 67% 29.97 in 10.0 mi NW 15.0 mph - N/A   Mostly Cloudy
7:15 PM 53.6 °F - 41.0 °F 62% 29.98 in 10.0 mi WNW 13.8 mph 17.3 mph N/A   Clear
7:35 PM 53.6 °F - 41.0 °F 62% 30.00 in 10.0 mi NW 15.0 mph - N/A   Mostly Cloudy
7:55 PM 53.6 °F - 39.2 °F 58% 30.00 in 10.0 mi WNW 16.1 mph - N/A   Overcast
8:15 PM 53.6 °F - 41.0 °F 62% 30.01 in 10.0 mi WNW 15.0 mph 24.2 mph N/A   Mostly Cloudy
8:35 PM 51.8 °F - 41.0 °F 67% 30.02 in 10.0 mi WNW 16.1 mph 20.7 mph N/A   Partly Cloudy
9:15 PM 51.8 °F - 41.0 °F 67% 30.04 in 10.0 mi NW 18.4 mph 21.9 mph N/A   Clear
9:35 PM 51.8 °F - 39.2 °F 62% 30.05 in 10.0 mi WNW 15.0 mph 25.3 mph N/A   Clear
9:55 PM 51.8 °F - 39.2 °F 62% 30.05 in 10.0 mi WNW 16.1 mph 25.3 mph N/A   Clear
10:15 PM 51.8 °F - 39.2 °F 62% 30.05 in 10.0 mi NW 17.3 mph 24.2 mph N/A   Clear
10:35 PM 51.8 °F - 39.2 °F 62% 30.06 in 10.0 mi NW 15.0 mph 24.2 mph N/A   Clear
10:55 PM 51.8 °F - 41.0 °F 67% 30.06 in 10.0 mi NW 15.0 mph 23.0 mph N/A   Clear
11:15 PM 50.0 °F - 39.2 °F 66% 30.07 in 10.0 mi WNW 15.0 mph 20.7 mph N/A   Clear
11:35 PM 50.0 °F - 39.2 °F 66% 30.07 in 10.0 mi WNW 15.0 mph 20.7 mph N/A   Clear
11:55 PM 50.0 °F - 39.2 °F 66% 30.08 in 10.0 mi WNW 16.1 mph 23.0 mph N/A   Clear